TIANMU-1 14

Last updated on Fri Sep 11 2026 00:02:39 GMT+0000 (Coordinated Universal Time)

1 58648U 23205D 26253.54834183 .00004040 00000+0 15313-3 0 9990 2 58648 97.3389 272.9345 0008096 45.2102 314.9795 15.27423246150539
UTC large
Height (km)
Speed (km/s)
/
Latitude / Longitude
Inclination (degrees)
Orbital Period (minutes)
Azimuth
Elevation
Range (km)
Doppler Factor

Next 0 passes for location: London (51.5072 / 0.1276)

No passes found over London.
TIANMU-1 14